• In Uzbekistan
  • List of Countries
  • For 7 days
  • Water Temperature
  • Satellite Maps
  • Weather Map
  • Weather Widgets
  • user-avatar
    Login

    Hourly Weather Eger

    Today, 19 February, Monday

    Time Temperature Precipitation Wind Pressure Humidity
    00:00 -4°C° 0 mm 3 mps 752 mmHg 81%
    01:00 -4°C° 0 mm 3 mps 751 mmHg 80%
    02:00 -5°C° 0 mm 3 mps 751 mmHg 79%
    03:00 -5°C° 0 mm 3 mps 751 mmHg 79%
    04:00 -5°C° 0 mm 3 mps 751 mmHg 78%
    05:00 -5°C° 0 mm 3 mps 751 mmHg 78%
    06:00 -5°C° 0 mm 3 mps 750 mmHg 77%
    07:00 -5°C° 0 mm 3 mps 750 mmHg 76%
    08:00 -4°C° 0 mm 3 mps 750 mmHg 71%
    09:00 -2°C° 0 mm 3 mps 750 mmHg 65%
    10:00 0°C° 0 mm 3 mps 750 mmHg 59%
    11:00 +1°C° 0 mm 3 mps 749 mmHg 57%
    12:00 +1°C° 0 mm 3 mps 749 mmHg 54%
    13:00 +2°C° 0 mm 3 mps 748 mmHg 52%
    14:00 +2°C° 0 mm 3 mps 748 mmHg 55%
    15:00 +2°C° 0 mm 3 mps 748 mmHg 58%
    16:00 +3°C° 0 mm 2 mps 747 mmHg 61%
    17:00 +2°C° 0 mm 2 mps 747 mmHg 64%
    18:00 -1°C° 0 mm 2 mps 747 mmHg 67%
    19:00 -2°C° 0 mm 3 mps 747 mmHg 71%
    20:00 -2°C° 0 mm 3 mps 747 mmHg 71%
    21:00 -2°C° 0 mm 3 mps 747 mmHg 71%
    22:00 -2°C° 0 mm 3 mps 747 mmHg 71%
    23:00 -2°C° 0 mm 3 mps 747 mmHg 71%

    Tomorrow, 20 February, Tuesday

    Time Temperature Precipitation Wind Pressure Humidity
    00:00 -2°C° 0 mm 3 mps 746 mmHg 71%
    01:00 -2°C° 0 mm 3 mps 746 mmHg 70%
    02:00 -2°C° 0 mm 3 mps 746 mmHg 71%
    03:00 -2°C° 0 mm 3 mps 746 mmHg 71%
    04:00 -2°C° 0 mm 3 mps 745 mmHg 71%
    05:00 -2°C° 0 mm 3 mps 745 mmHg 72%
    06:00 -2°C° 0 mm 3 mps 745 mmHg 72%
    07:00 -2°C° 0 mm 3 mps 745 mmHg 72%
    08:00 -2°C° 0 mm 4 mps 744 mmHg 69%
    09:00 -1°C° 0 mm 4 mps 744 mmHg 66%
    10:00 +1°C° 0 mm 4 mps 744 mmHg 62%
    11:00 +1°C° 0.1 mm 4 mps 744 mmHg 61%
    12:00 +3°C° 0.1 mm 4 mps 744 mmHg 61%
    13:00 +3°C° 0.1 mm 4 mps 743 mmHg 60%
    14:00 +3°C° 0.2 mm 4 mps 743 mmHg 63%
    15:00 +3°C° 0.2 mm 3 mps 743 mmHg 66%
    16:00 +2°C° 0.2 mm 3 mps 743 mmHg 69%
    17:00 +2°C° 0.4 mm 3 mps 743 mmHg 70%
    18:00 +2°C° 0.4 mm 3 mps 743 mmHg 71%
    19:00 +1°C° 0.4 mm 3 mps 743 mmHg 72%
    20:00 +1°C° 0.5 mm 3 mps 743 mmHg 73%
    21:00 +1°C° 0.5 mm 3 mps 743 mmHg 74%
    22:00 +1°C° 0.5 mm 3 mps 743 mmHg 75%
    23:00 0°C° 0.5 mm 3 mps 743 mmHg 78%

    Day after tomorrow, 21 February, Wednesday

    Time Temperature Precipitation Wind Pressure Humidity
    00:00 0°C° 0.5 mm 3 mps 743 mmHg 80%
    01:00 0°C° 0.5 mm 3 mps 744 mmHg 83%
    02:00 0°C° 0.3 mm 3 mps 743 mmHg 84%
    03:00 0°C° 0.3 mm 3 mps 743 mmHg 85%
    04:00 0°C° 0.3 mm 3 mps 743 mmHg 86%
    05:00 -1°C° 0.1 mm 3 mps 743 mmHg 85%
    06:00 -1°C° 0.1 mm 3 mps 743 mmHg 85%
    07:00 -1°C° 0.1 mm 3 mps 743 mmHg 85%
    08:00 0°C° 0 mm 3 mps 744 mmHg 83%
    09:00 +1°C° 0 mm 3 mps 744 mmHg 81%
    10:00 +1°C° 0 mm 3 mps 744 mmHg 79%
    11:00 +2°C° 0 mm 3 mps 744 mmHg 77%
    12:00 +3°C° 0 mm 3 mps 744 mmHg 75%
    13:00 +4°C° 0 mm 3 mps 744 mmHg 73%
    14:00 +3°C° 0 mm 3 mps 743 mmHg 75%
    15:00 +3°C° 0 mm 3 mps 743 mmHg 76%
    16:00 +4°C° 0 mm 2 mps 743 mmHg 78%
    17:00 +2°C° 0 mm 3 mps 743 mmHg 78%
    18:00 +1°C° 0 mm 3 mps 743 mmHg 79%
    19:00 -1°C° 0 mm 4 mps 744 mmHg 79%
    20:00 -2°C° 0 mm 4 mps 744 mmHg 79%
    21:00 -2°C° 0 mm 4 mps 744 mmHg 79%
    22:00 -3°C° 0 mm 4 mps 744 mmHg 79%
    23:00 -3°C° 0 mm 4 mps 744 mmHg 79%

    22 February, Thursday

    Time Temperature Precipitation Wind Pressure Humidity
    00:00 -3°C° 0 mm 4 mps 744 mmHg 78%
    01:00 -3°C° 0 mm 4 mps 744 mmHg 78%
    02:00 -3°C° 0 mm 4 mps 744 mmHg 78%
    03:00 -3°C° 0 mm 4 mps 743 mmHg 77%
    04:00 -3°C° 0 mm 4 mps 743 mmHg 77%
    05:00 -3°C° 0 mm 4 mps 743 mmHg 77%
    06:00 -4°C° 0 mm 5 mps 743 mmHg 76%
    07:00 -4°C° 0 mm 5 mps 743 mmHg 76%
    08:00 -2°C° 0 mm 5 mps 743 mmHg 74%
    09:00 -1°C° 0 mm 5 mps 743 mmHg 71%
    10:00 0°C° 0 mm 5 mps 743 mmHg 69%
    11:00 +1°C° 0 mm 5 mps 743 mmHg 68%
    12:00 +2°C° 0 mm 5 mps 743 mmHg 67%
    13:00 +2°C° 0 mm 5 mps 742 mmHg 66%
    14:00 +2°C° 0 mm 5 mps 742 mmHg 67%
    15:00 +2°C° 0 mm 5 mps 742 mmHg 68%
    16:00 +1°C° 0 mm 5 mps 742 mmHg 69%
    17:00 0°C° 0 mm 5 mps 742 mmHg 71%
    18:00 0°C° 0 mm 5 mps 742 mmHg 73%
    19:00 -1°C° 0 mm 5 mps 743 mmHg 75%
    20:00 -2°C° 0 mm 5 mps 743 mmHg 76%
    21:00 -2°C° 0 mm 4 mps 743 mmHg 76%
    22:00 -2°C° 0 mm 4 mps 743 mmHg 76%
    23:00 -2°C° 0 mm 4 mps 743 mmHg 76%

    23 February, Friday

    Time Temperature Precipitation Wind Pressure Humidity
    00:00 -3°C° 0 mm 4 mps 743 mmHg 76%
    01:00 -3°C° 0 mm 4 mps 743 mmHg 76%
    02:00 -3°C° 0 mm 4 mps 743 mmHg 76%
    03:00 -3°C° 0 mm 4 mps 743 mmHg 75%
    04:00 -3°C° 0 mm 4 mps 743 mmHg 75%
    05:00 -3°C° 0 mm 4 mps 743 mmHg 75%
    06:00 -3°C° 0 mm 4 mps 743 mmHg 74%
    07:00 -3°C° 0 mm 4 mps 743 mmHg 74%
    08:00 -2°C° 0 mm 5 mps 743 mmHg 72%
    09:00 -1°C° 0 mm 5 mps 743 mmHg 70%
    10:00 -1°C° 0 mm 5 mps 743 mmHg 68%
    11:00 0°C° 0.1 mm 5 mps 743 mmHg 67%
    12:00 0°C° 0.1 mm 5 mps 743 mmHg 67%
    13:00 0°C° 0.1 mm 5 mps 743 mmHg 66%
    14:00 0°C° 0.1 mm 5 mps 743 mmHg 67%
    15:00 0°C° 0.1 mm 5 mps 743 mmHg 67%
    16:00 -1°C° 0.1 mm 5 mps 743 mmHg 68%
    17:00 -3°C° 0 mm 6 mps 743 mmHg 68%
    18:00 -3°C° 0 mm 6 mps 743 mmHg 67%
    19:00 -4°C° 0 mm 6 mps 744 mmHg 67%
    20:00 -5°C° 0 mm 6 mps 744 mmHg 66%
    21:00 -7°C° 0 mm 7 mps 744 mmHg 65%
    22:00 -7°C° 0 mm 7 mps 745 mmHg 64%
    23:00 -8°C° 0 mm 7 mps 745 mmHg 62%

    24 February, Saturday

    Time Temperature Precipitation Wind Pressure Humidity
    00:00 -9°C° 0 mm 7 mps 745 mmHg 60%
    01:00 -9°C° 0 mm 7 mps 745 mmHg 58%
    02:00 -11°C° 0 mm 7 mps 745 mmHg 55%
    03:00 -11°C° 0 mm 8 mps 745 mmHg 53%
    04:00 -11°C° 0 mm 8 mps 745 mmHg 51%
    05:00 -12°C° 0 mm 8 mps 745 mmHg 50%
    06:00 -12°C° 0 mm 8 mps 746 mmHg 49%
    07:00 -12°C° 0 mm 8 mps 746 mmHg 49%
    08:00 -11°C° 0 mm 7 mps 746 mmHg 46%
    09:00 -11°C° 0 mm 7 mps 747 mmHg 43%
    10:00 -9°C° 0 mm 7 mps 747 mmHg 41%
    11:00 -8°C° 0 mm 7 mps 747 mmHg 39%
    12:00 -8°C° 0 mm 6 mps 748 mmHg 37%
    13:00 -6°C° 0 mm 6 mps 748 mmHg 35%
    14:00 -6°C° 0 mm 5 mps 748 mmHg 36%
    15:00 -6°C° 0 mm 5 mps 748 mmHg 37%
    16:00 -7°C° 0 mm 5 mps 748 mmHg 37%
    17:00 -7°C° 0 mm 4 mps 748 mmHg 40%
    18:00 -8°C° 0 mm 4 mps 748 mmHg 42%
    19:00 -7°C° 0 mm 3 mps 749 mmHg 44%
    20:00 -8°C° 0 mm 3 mps 749 mmHg 44%
    21:00 -7°C° 0 mm 2 mps 749 mmHg 44%
    22:00 -6°C° 0 mm 1 mps 749 mmHg 45%
    23:00 -6°C° 0 mm 1 mps 749 mmHg 46%
    Show more